Location: STAR School
(35.3054°N, 111.2976°W)
Time: 14:57:35
(UTC-07:00)

Transit 4A - All Passes

Search period start: 26 May 2019 00:00
Search period end: 05 June 2019 00:00
Orbit: 862 x 983 km, 66.8° (Epoch: 25 May)

Date Brightness Start Highest point End Pass type
(mag) Time Alt. Az. Time Alt. Az. Time Alt. Az.
26 May - 00:14:26 10° NNW 00:20:49 74° WSW 00:27:03 10° SSE visible
26 May - 13:31:56 10° S 13:37:35 40° ESE 13:43:24 10° NE daylight
26 May - 15:18:35 10° WSW 15:24:00 31° NW 15:29:36 10° N daylight
26 May - 22:38:07 10° N 22:43:29 27° NE 22:48:45 10° ESE visible
27 May - 00:23:59 10° NW 00:30:05 48° WSW 00:36:01 10° S visible
27 May - 13:40:46 10° SSW 13:46:47 62° ESE 13:53:02 10° NNE daylight
27 May - 15:28:56 10° W 15:33:38 22° NW 15:38:27 10° N daylight
27 May - 22:47:05 10° NNW 22:53:04 39° ENE 22:58:54 10° SE visible
28 May - 00:33:45 10° NW 00:39:15 31° WSW 00:44:38 10° SSW visible
28 May - 12:08:39 10° ESE 12:10:41 12° E 12:12:43 10° E daylight
28 May - 13:49:56 10° SSW 13:56:06 87° WNW 14:02:28 10° NNE daylight
28 May - 15:39:49 10° W 15:43:23 15° NW 15:47:00 10° N daylight
28 May - 21:13:31 10° NNE 21:14:45 11° NE 21:16:00 10° NE visible
28 May - 22:56:14 10° NNW 23:02:32 58° ENE 23:08:41 10° SE visible
29 May - 00:43:54 10° WNW 00:48:21 20° WSW 00:52:43 10° SSW visible
29 May - 12:15:28 10° SSE 12:19:42 20° ESE 12:24:00 10° ENE daylight
29 May - 13:59:24 10° SW 14:05:28 59° WNW 14:11:45 10° NNE daylight
29 May - 15:52:02 10° NW 15:53:15 11° NW 15:54:28 10° NNW daylight
29 May - 21:20:59 10° N 21:24:37 15° NE 21:28:12 10° E visible
29 May - 23:05:30 10° NNW 23:11:56 86° ENE 23:18:11 10° SSE visible
30 May - 00:55:02 10° WNW 00:57:23 12° W 00:59:42 10° WSW visible
30 May - 12:23:32 10° SSE 12:28:47 31° ESE 12:34:11 10° NE daylight
30 May - 14:09:11 10° SW 14:14:57 40° WNW 14:20:53 10° NNE daylight
30 May - 21:29:32 10° N 21:34:22 22° NE 21:39:07 10° E visible
30 May - 23:14:56 10° NNW 23:21:14 63° WSW 23:27:21 10° SSE visible
31 May - 12:32:07 10° S 12:37:57 47° ESE 12:43:59 10° NE daylight
31 May - 14:19:18 10° WSW 14:24:32 28° NW 14:29:53 10° N daylight
31 May - 21:38:24 10° N 21:44:01 31° NE 21:49:30 10° ESE visible
31 May - 23:24:33 10° NW 23:30:27 41° WSW 23:36:13 10° S visible
01 Jun - 12:41:04 10° SSW 12:47:11 73° ESE 12:53:31 10° NNE daylight
01 Jun - 14:29:50 10° W 14:34:12 19° NW 14:38:39 10° N daylight
01 Jun - 21:47:26 10° NNW 21:53:33 45° ENE 21:59:30 10° SE visible
01 Jun - 23:34:26 10° NW 23:39:35 27° WSW 23:44:40 10° SSW visible
02 Jun - 11:07:51 10° SE 11:10:58 14° ESE 11:14:08 10° ENE daylight
02 Jun - 12:50:21 10° SSW 12:56:31 76° WNW 13:02:54 10° NNE daylight
02 Jun - 14:41:00 10° WNW 14:43:59 13° NW 14:47:00 10° NNW daylight
02 Jun - 20:12:58 10° NNE 20:15:23 12° NE 20:17:47 10° ENE visible
02 Jun - 21:56:37 10° NNW 22:03:00 68° ENE 22:09:11 10° SE visible
02 Jun - 23:44:49 10° WNW 23:48:40 17° WSW 23:52:27 10° SW visible
03 Jun - 11:15:19 10° SSE 11:20:01 23° ESE 11:24:49 10° NE daylight
03 Jun - 12:59:56 10° SW 13:05:56 51° WNW 13:12:08 10° NNE daylight
03 Jun - 20:21:05 10° N 20:25:12 17° NE 20:29:16 10° E visible
03 Jun - 22:05:57 10° NNW 22:12:21 82° WSW 22:18:34 10° SSE visible
04 Jun - 11:23:36 10° S 11:29:08 36° ESE 11:34:49 10° NE daylight
04 Jun - 13:09:50 10° WSW 13:15:27 35° NW 13:21:13 10° N daylight
04 Jun - 20:29:46 10° N 20:34:55 25° NE 20:39:57 10° ESE visible
04 Jun - 22:15:27 10° NW 22:21:37 54° WSW 22:27:38 10° S visible
